R/V Atlantis Calliope CSV data file  (Time stamps are GMT)
Date, Time_GMT, Dec_Lat, Dec_Lon, Depth12, Depth35, GPS_COG, GPS_SOG, Gyro, Air_Temp, IMET_BPR, IMET_SWR, HRH, PhinsHd, SBE45C, SBE45S, SBE45T, Salinity, SSTMP, SSV, SSCND, SST_FSI, SST_SBE48, Wnd_Dir, Wnd_Spd, HdChkSum=1B
2009/03/10, 00:00:04, 9.766967, -84.808350, , , 222.0, 11.20, 218.4, 28.887, 1006.91, 0.7, 64.374, 218.4, , , , 36.3393, 27.8812, 1542.4667, 57.9943, 32.5518, 27.8812, 30.3, 7.3473, 1B
2009/03/10, 00:01:02, 9.765067, -84.810100, , , 221.0, 10.70, 217.5, 28.879, 1006.88, 0.5, 65.057, 217.3, , , , 36.3737, 27.8224, 1542.3733, 57.9785, 32.5477, 27.8224, 30.8, 6.8909, 1B
2009/03/10, 00:02:01, 9.762800, -84.812117, , , 221.0, 10.70, 217.5, 28.864, 1006.97, 0.3, 64.788, 217.5, , , , 36.3533, 27.8651, 1542.4171, 57.9821, 32.5446, 27.8651, 35.1, 6.7292, 1B
2009/03/10, 00:03:02, 9.760500, -84.814117, , , 221.0, 10.90, 217.4, 28.856, 1006.79, 0.1, 65.218, 217.3, , , , 36.2761, 27.9515, 1542.5547, 57.9817, 32.5404, 27.9515, 36.1, 6.7282, 1B
2009/03/10, 00:04:02, 9.758217, -84.816067, , , 221.0, 10.70, 217.2, 28.848, 1006.84, 0.0, 64.428, 217.2, , , , 36.2087, 28.0363, 1542.6699, 57.9788, 32.5384, 28.0363, 33.7, 6.6753, 1B
2009/03/10, 00:05:02, 9.755817, -84.818000, , , 218.0, 10.40, 216.9, 28.833, 1006.89, -0.2, 65.410, 217.2, , , , 36.1573, 28.1056, 1542.7676, 57.9814, 32.5420, 28.1056, 35.8, 4.7001, 1B
2009/03/10, 00:06:01, 9.753567, -84.819917, , , 219.0, 10.40, 220.3, 28.802, 1006.86, -0.2, 62.901, 220.8, , , , 36.1108, 28.1846, 1542.8560, 57.9837, 32.5389, 28.1846, 91.2, 3.3439, 1B
2009/03/10, 00:07:01, 9.751367, -84.821817, , , 220.0, 11.00, 219.7, 28.802, 1006.94, 0.0, 61.941, 220.1, , , , 36.0353, 28.2805, 1542.9876, 57.9815, 32.5367, 28.2805, 107.6, 3.7468, 1B
2009/03/10, 00:08:02, 9.749033, -84.823733, , , 219.0, 10.90, 219.6, 28.787, 1006.85, 0.1, 60.261, 219.7, , , , 35.9579, 28.3627, 1543.1186, 57.9771, 32.5340, 28.3627, 114.1, 4.5971, 1B
2009/03/10, 00:09:01, 9.746617, -84.825733, , , 220.0, 10.60, 219.4, 28.818, 1006.82, 0.3, 60.967, 219.7, , , , 35.9209, 28.4306, 1543.2049, 57.9867, 32.5321, 28.4306, 117.2, 4.6531, 1B
2009/03/10, 00:10:01, 9.744367, -84.827533, , , 217.0, 10.50, 219.7, 28.841, 1006.92, 0.5, 62.494, 219.8, , , , 35.8661, 28.4964, 1543.2895, 57.9795, 32.5269, 28.4964, 104.8, 4.7817, 1B
2009/03/10, 00:11:01, 9.742067, -84.829433, , , 219.0, 10.70, 219.9, 28.825, 1006.91, 0.5, 61.404, 219.9, , , , 35.8219, 28.5558, 1543.3727, 57.9811, 32.5249, 28.5558, 87.1, 6.0113, 1B
2009/03/10, 00:12:01, 9.739717, -84.831350, , , 219.0, 11.10, 220.0, 28.825, 1007.00, 0.5, 61.404, 219.7, , , , 35.7796, 28.6025, 1543.4379, 57.9753, 32.5222, 28.6025, 77.1, 5.7830, 1B
2009/03/10, 00:13:01, 9.737367, -84.833267, , , 220.0, 10.80, 220.4, 28.856, 1007.16, 0.5, 61.274, 220.1, , , , 35.7435, 28.6375, 1543.4790, 57.9630, 32.5208, 28.6375, 77.2, 5.7528, 1B
2009/03/10, 00:14:01, 9.734950, -84.835283, , , 219.0, 10.80, 220.4, 28.848, 1006.88, 0.5, 59.048, 220.3, , , , 35.7104, 28.6706, 1543.5137, 57.9503, 32.5205, 28.6706, 87.1, 5.1689, 1B
2009/03/10, 00:15:01, 9.732700, -84.837183, , , 220.0, 10.90, 220.6, 28.879, 1007.03, 0.5, 60.261, 220.5, , , , 35.6974, 28.6913, 1543.5509, 57.9570, 32.5210, 28.6913, 87.8, 4.0060, 1B
2009/03/10, 00:16:01, 9.730350, -84.839133, , , 220.0, 10.60, 220.0, 28.879, 1007.04, 0.5, 60.084, 220.6, , , , 35.6903, 28.7018, 1543.5704, 57.9604, 32.5216, 28.7018, 75.0, 3.6412, 1B
2009/03/10, 00:17:01, 9.728000, -84.841083, , , 221.0, 11.10, 221.1, 28.902, 1007.15, 0.5, 58.940, 220.9, , , , 35.6864, 28.7010, 1543.5663, 57.9547, 32.5289, 28.7010, 71.7, 4.3059, 1B
2009/03/10, 00:18:02, 9.725633, -84.843033, , , 219.0, 10.90, 219.9, 28.895, 1007.11, 0.5, 58.487, 220.0, , , , 35.6890, 28.7033, 1543.5731, 57.9606, 32.5205, 28.7033, 82.9, 4.7823, 1B
2009/03/10, 00:19:01, 9.723267, -84.845000, , , 219.0, 11.00, 220.0, 28.926, 1007.00, 0.5, 59.447, 220.0, , , , 35.6776, 28.7069, 1543.5670, 57.9471, 32.5280, 28.7069, 82.5, 4.8195, 1B
2009/03/10, 00:20:01, 9.720900, -84.846950, , , 218.0, 11.00, 219.6, 28.949, 1007.06, 0.5, 58.273, 219.8, , , , 35.6693, 28.7114, 1543.5699, 57.9409, 32.5159, 28.7114, 87.2, 4.9839, 1B
2009/03/10, 00:21:01, 9.718517, -84.848900, , , 220.0, 11.20, 220.1, 29.003, 1006.99, 0.5, 62.463, 219.9, , , , 35.6612, 28.7166, 1543.5717, 57.9345, 32.5152, 28.7166, 89.6, 5.1700, 1B
2009/03/10, 00:22:01, 9.716117, -84.850883, , , 219.0, 11.30, 219.9, 29.033, 1007.04, 0.5, 66.905, 219.5, , , , 35.6566, 28.7271, 1543.5858, 57.9373, 32.5099, 28.7271, 93.7, 5.1048, 1B
2009/03/10, 00:23:01, 9.713667, -84.852883, , , 218.0, 11.30, 219.6, 29.110, 1007.11, 0.1, 70.824, 219.7, , , , 35.6507, 28.7363, 1543.5977, 57.9379, 32.5072, 28.7363, 94.3, 4.9095, 1B
2009/03/10, 00:24:01, 9.711167, -84.854950, , , 220.0, 11.70, 220.0, 29.110, 1006.97, -0.3, 72.250, 219.8, , , , 35.6331, 28.7449, 1543.6040, 57.9250, 32.5058, 28.7449, 106.8, 5.3127, 1B
2009/03/10, 00:25:01, 9.708650, -84.857033, , , 218.0, 11.90, 219.2, 29.064, 1007.06, -0.3, 73.791, 219.3, , , , 35.6335, 28.7549, 1543.6259, 57.9364, 32.4999, 28.7549, 101.8, 4.8890, 1B
2009/03/10, 00:26:02, 9.706117, -84.859117, , , 220.0, 11.80, 220.1, 28.979, 1006.99, -0.3, 74.213, 220.2, , , , 35.6283, 28.7671, 1543.6467, 57.9420, 32.5091, 28.7671, 104.7, 4.8899, 1B
2009/03/10, 00:27:02, 9.703583, -84.861217, , , 220.0, 11.90, 220.4, 28.887, 1007.09, -0.3, 74.320, 220.4, , , , 35.6080, 28.7810, 1543.6553, 57.9277, 32.4987, 28.7810, 102.1, 5.0612, 1B
2009/03/10, 00:28:02, 9.701050, -84.863350, , , 220.0, 11.70, 220.8, 28.810, 1007.04, -0.4, 74.497, 220.8, , , , 35.5989, 28.7942, 1543.6741, 57.9289, 32.4932, 28.7942, 101.0, 4.9380, 1B
2009/03/10, 00:29:02, 9.698533, -84.865483, , , 220.0, 11.60, 220.0, 28.771, 1007.11, -0.3, 74.726, 220.0, , , , 35.5881, 28.8051, 1543.6862, 57.9250, 32.4948, 28.8051, 99.8, 5.0225, 1B
2009/03/10, 00:30:01, 9.696000, -84.867583, , , 221.0, 11.70, 219.9, 28.710, 1007.13, -0.4, 74.251, 219.9, , , , 35.5829, 28.8186, 1543.7031, 57.9288, 32.4859, 28.8186, 98.2, 5.1110, 1B
2009/03/10, 00:31:01, 9.693467, -84.869700, , , 218.0, 12.10, 220.1, 28.687, 1007.08, -0.5, 74.497, 220.0, , , , 35.5689, 28.8370, 1543.7266, 57.9278, 32.4784, 28.8370, 95.7, 4.8037, 1B
2009/03/10, 00:32:01, 9.690933, -84.871783, , , 221.0, 11.90, 220.0, 28.664, 1007.14, -0.4, 74.788, 219.7, , , , 35.5519, 28.8586, 1543.7547, 57.9263, 32.4853, 28.8586, 93.3, 4.6940, 1B
2009/03/10, 00:33:01, 9.688417, -84.873917, , , 222.0, 11.90, 220.1, 28.640, 1007.06, -0.3, 75.125, 220.0, , , , 35.5241, 28.8768, 1543.7654, 57.9061, 32.4853, 28.8768, 97.1, 4.5121, 1B
2009/03/10, 00:34:02, 9.685900, -84.876050, , , 221.0, 11.70, 220.6, 28.625, 1007.15, -0.4, 75.271, 220.6, , , , 35.5224, 28.8880, 1543.7952, 57.9195, 32.4909, 28.8880, 102.2, 4.0115, 1B
2009/03/10, 00:35:02, 9.683433, -84.878183, , , 219.0, 11.70, 219.7, 28.594, 1007.23, -0.3, 75.278, 219.8, , , , 35.5239, 28.8924, 1543.8062, 57.9265, 32.4803, 28.8924, 108.3, 3.9563, 1B
2009/03/10, 00:36:02, 9.680933, -84.880317, , , 221.0, 11.70, 220.7, 28.602, 1007.13, -0.3, 76.298, 220.5, , , , 35.5318, 28.8828, 1543.7939, 57.9275, 32.4835, 28.8828, 116.0, 3.5818, 1B
2009/03/10, 00:37:01, 9.678467, -84.882483, , , 222.0, 11.90, 220.8, 28.571, 1007.16, 0.0, 76.520, 220.3, , , , 35.5421, 28.8614, 1543.7588, 57.9194, 32.4810, 28.8614, 113.1, 3.4485, 1B
2009/03/10, 00:38:02, 9.676000, -84.884650, , , 220.0, 11.60, 219.7, 28.525, 1007.23, -0.2, 76.727, 219.8, , , , 35.5584, 28.8390, 1543.7278, 57.9188, 32.4823, 28.8390, 113.0, 3.1678, 1B
2009/03/10, 00:39:02, 9.673517, -84.886783, , , 220.0, 11.70, 219.9, 28.502, 1007.20, 0.1, 76.313, 219.7, , , , 35.5776, 28.8197, 1543.7065, 57.9257, 32.4827, 28.8197, 111.1, 3.0976, 1B
2009/03/10, 00:40:02, 9.670967, -84.888983, , , 220.0, 11.60, 219.4, 28.494, 1007.14, 0.0, 77.279, 219.6, , , , 35.5853, 28.8109, 1543.6957, 57.9273, 32.4862, 28.8109, 109.9, 3.2316, 1B
2009/03/10, 00:41:02, 9.668583, -84.891083, , , 221.0, 11.80, 220.7, 28.494, 1007.24, 0.1, 77.531, 220.6, , , , 35.5799, 28.8082, 1543.6842, 57.9166, 32.4809, 28.8082, 113.1, 2.6775, 1B
2009/03/10, 00:42:01, 9.666067, -84.893350, , , 224.0, 11.70, 220.7, 28.471, 1007.23, 0.0, 77.754, 220.5, , , , 35.5830, 28.8036, 1543.6793, 57.9170, 32.4770, 28.8036, 113.1, 2.6876, 1B
2009/03/10, 00:43:01, 9.663700, -84.895500, , , 221.0, 11.80, 220.4, 28.440, 1007.24, -0.2, 78.068, 220.3, , , , 35.5769, 28.8011, 1543.6658, 57.9045, 32.4753, 28.8011, 100.0, 2.5335, 1B
2009/03/10, 00:44:01, 9.661150, -84.897767, , , 220.0, 11.80, 220.3, 28.440, 1007.26, -0.2, 78.068, 219.5, , , , 35.5763, 28.8075, 1543.6751, 57.9087, 32.4748, 28.8075, 103.4, 2.7537, 1B
2009/03/10, 00:45:01, 9.658767, -84.899900, , , 220.0, 11.60, 220.0, 28.417, 1007.12, -0.2, 78.428, 220.0, , , , 35.5688, 28.8160, 1543.6894, 57.9089, 32.4737, 28.8160, 105.3, 2.3422, 1B
2009/03/10, 00:46:02, 9.656183, -84.902167, , , 223.0, 12.10, 220.0, 28.409, 1007.14, -0.2, 78.842, 220.0, , , , 35.5741, 28.8194, 1543.7022, 57.9202, 32.4847, 28.8194, 115.9, 2.3718, 1B
2009/03/10, 00:47:02, 9.653800, -84.904317, , , 222.0, 11.90, 220.6, 28.371, 1007.24, 0.0, 78.482, 220.5, , , , 35.5667, 28.8168, 1543.6889, 57.9068, 32.4748, 28.8168, 121.0, 2.1629, 1B
2009/03/10, 00:48:02, 9.651333, -84.906533, , , 221.0, 11.70, 220.4, 28.340, 1007.24, 0.0, 78.290, 220.2, , , , 35.5770, 28.8053, 1543.6750, 57.9092, 32.4779, 28.8053, 124.6, 1.9530, 1B
2009/03/10, 00:49:01, 9.648850, -84.908733, , , 221.0, 12.10, 219.9, 28.332, 1007.26, 0.0, 78.052, 219.7, , , , 35.5835, 28.7916, 1543.6523, 57.9038, 32.4738, 28.7916, 117.6, 1.8023, 1B
2009/03/10, 00:50:01, 9.646350, -84.910933, , , 222.0, 11.90, 219.8, 28.302, 1007.33, 0.1, 78.045, 220.1, , , , 35.5982, 28.7782, 1543.6390, 57.9106, 32.4718, 28.7782, 121.7, 1.7527, 1B
2009/03/10, 00:51:02, 9.643850, -84.913133, , , 223.0, 12.00, 220.9, 28.286, 1007.26, 0.1, 77.984, 220.9, , , , 35.6060, 28.7662, 1543.6214, 57.9089, 32.4745, 28.7662, 123.9, 2.1172, 1B
2009/03/10, 00:52:01, 9.641433, -84.915400, , , 222.0, 12.00, 220.2, 28.286, 1007.27, 0.1, 77.984, 219.9, , , , 35.6063, 28.7754, 1543.6301, 57.9135, 32.4713, 28.7754, 129.7, 2.2003, 1B
2009/03/10, 00:53:02, 9.639017, -84.917650, , , 223.0, 11.70, 220.0, 28.255, 1007.40, 0.1, 77.823, 220.0, , , , 35.5729, 28.8161, 1543.6939, 57.9150, 32.4743, 28.8161, 131.9, 2.3300, 1B
2009/03/10, 00:54:01, 9.636617, -84.919900, , , 223.0, 11.70, 219.8, 28.255, 1007.34, 0.1, 77.823, 219.5, , , , 35.5431, 28.8663, 1543.7534, 57.9134, 32.4731, 28.8663, 126.9, 2.3337, 1B
2009/03/10, 00:55:01, 9.634167, -84.922117, , , 223.0, 11.90, 219.5, 28.255, 1007.31, 0.1, 77.892, 219.4, , , , 35.5045, 28.9126, 1543.8135, 57.9123, 32.4692, 28.9126, 130.3, 2.2270, 1B
2009/03/10, 00:56:01, 9.631717, -84.924367, , , 225.0, 11.80, 220.3, 28.232, 1007.41, 0.1, 77.639, 220.7, , , , 35.4688, 28.9476, 1543.8555, 57.9006, 32.4792, 28.9476, 128.8, 2.2218, 1B
2009/03/10, 00:57:01, 9.629167, -84.926717, , , 221.0, 11.80, 220.0, 28.263, 1007.39, 0.1, 77.838, 219.5, , , , 35.4539, 28.9703, 1543.8938, 57.9061, 32.4818, 28.9703, 124.4, 2.6617, 1B
2009/03/10, 00:58:01, 9.626767, -84.928917, , , 222.0, 12.10, 220.0, 28.232, 1007.34, 0.1, 77.616, 220.1, , , , 35.4428, 28.9855, 1543.9163, 57.9073, 32.4816, 28.9855, 121.5, 2.5214, 1B
2009/03/10, 00:59:02, 9.624183, -84.931267, , , 223.0, 12.20, 220.4, 28.232, 1007.42, 0.1, 77.600, 220.6, , , , 35.4326, 28.9944, 1543.9287, 57.9041, 32.4702, 28.9944, 120.8, 3.0619, 1B
2009/03/10, 01:00:02, 9.621783, -84.933500, , , 221.0, 12.10, 220.3, 28.224, 1007.42, 0.1, 77.562, 220.1, , , , 35.4319, 28.9989, 1543.9376, 57.9080, 32.4712, 28.9989, 126.9, 2.9411, 1B
2009/03/10, 01:01:01, 9.619300, -84.935817, , , 222.0, 12.20, 220.4, 28.217, 1007.44, 0.1, 76.826, 220.0, , , , 35.4249, 29.0020, 1543.9373, 57.9014, 32.4721, 29.0020, 126.1, 3.1957, 1B
2009/03/10, 01:02:01, 9.616817, -84.938133, , , 220.0, 12.20, 219.8, 28.217, 1007.32, 0.1, 76.803, 220.2, , , , 35.4237, 28.9999, 1543.9320, 57.8972, 32.4683, 28.9999, 123.2, 2.9871, 1B
2009/03/10, 01:03:02, 9.614283, -84.940450, , , 223.0, 12.20, 220.1, 28.217, 1007.47, 0.1, 77.087, 220.4, , , , 35.4247, 28.9966, 1543.9252, 57.8951, 32.4627, 28.9966, 125.8, 2.9910, 1B
2009/03/10, 01:04:02, 9.611783, -84.942800, , , 222.0, 12.20, 220.5, 28.217, 1007.48, 0.1, 77.095, 220.6, , , , 35.4348, 28.9904, 1543.9225, 57.9030, 32.4518, 28.9904, 125.1, 2.8744, 1B
2009/03/10, 01:05:01, 9.609233, -84.945267, , , 223.0, 12.50, 220.0, 28.209, 1007.39, 0.1, 76.888, 220.1, , , , 35.4413, 28.9808, 1543.9088, 57.9021, 32.4585, 28.9808, 124.4, 3.0031, 1B
2009/03/10, 01:06:01, 9.606800, -84.947533, , , 222.0, 12.50, 220.0, 28.209, 1007.45, 0.1, 76.558, 220.6, , , , 35.4490, 28.9698, 1543.8974, 57.9035, 32.4574, 28.9698, 127.1, 3.0224, 1B
2009/03/10, 01:07:01, 9.604200, -84.949983, , , 224.0, 12.20, 220.1, 28.224, 1007.48, 0.1, 76.872, 219.9, , , , 35.4496, 28.9628, 1543.8801, 57.8953, 32.4599, 28.9628, 121.0, 2.8016, 1B
2009/03/10, 01:08:02, 9.601767, -84.952250, , , 224.0, 12.40, 220.0, 28.217, 1007.55, 0.1, 77.102, 218.5, , , , 35.4479, 28.9640, 1543.8798, 57.8936, 32.4551, 28.9640, 122.6, 2.8198, 1B
2009/03/10, 01:09:02, 9.599133, -84.954300, , , 216.0, 12.00, 212.9, 28.209, 1007.47, 0.1, 76.650, 212.9, , , , 35.4527, 28.9615, 1543.8795, 57.8979, 32.4529, 28.9615, 117.3, 2.7183, 1B
2009/03/10, 01:10:01, 9.596450, -84.956333, , , 219.0, 12.10, 213.7, 28.209, 1007.56, 0.1, 76.803, 213.4, , , , 35.4518, 28.9559, 1543.8680, 57.8913, 32.4569, 28.9559, 117.5, 2.6864, 1B
2009/03/10, 01:11:01, 9.593783, -84.958383, , , 214.0, 11.90, 210.7, 28.201, 1007.48, 0.1, 76.834, 210.7, , , , 35.4690, 28.9465, 1543.8645, 57.9053, 32.4565, 28.9465, 117.4, 2.2648, 1B
2009/03/10, 01:12:01, 9.591117, -84.960317, , , 217.0, 11.70, 211.4, 28.194, 1007.45, 0.1, 76.551, 211.3, , , , 35.4701, 28.9398, 1543.8521, 57.9001, 32.4616, 28.9398, 121.7, 2.3250, 1B
2009/03/10, 01:13:02, 9.588467, -84.962283, , , 216.0, 12.00, 210.5, 28.201, 1007.50, 0.1, 76.635, 210.6, , , , 35.4558, 28.9567, 1543.8724, 57.8972, 32.4613, 28.9567, 109.3, 2.6892, 1B
2009/03/10, 01:14:01, 9.585767, -84.964217, , , 215.0, 11.90, 211.7, 28.201, 1007.61, 0.1, 76.374, 211.8, , , , 35.4388, 28.9753, 1543.8899, 57.8903, 32.4469, 28.9753, 108.6, 2.5801, 1B
2009/03/10, 01:15:02, 9.583067, -84.966183, , , 214.0, 11.80, 211.6, 28.201, 1007.52, 0.1, 76.512, 211.4, , , , 35.4318, 28.9877, 1543.9136, 57.8957, 32.4616, 28.9877, 118.4, 1.8765, 1B
2009/03/10, 01:16:01, 9.580367, -84.968133, , , 216.0, 11.90, 211.5, 28.201, 1007.55, 0.1, 76.803, 211.2, , , , 35.4213, 29.0024, 1543.9340, 57.8963, 32.4592, 29.0024, 115.9, 2.1763, 1B
2009/03/10, 01:17:02, 9.577683, -84.970117, , , 211.0, 11.90, 206.5, 28.186, 1007.64, 0.1, 76.252, 206.6, , , , 35.4029, 29.0224, 1543.9574, 57.8912, 32.4533, 29.0224, 117.5, 2.0341, 1B
2009/03/10, 01:18:01, 9.574883, -84.971800, , , 210.0, 11.80, 205.7, 28.201, 1007.59, 0.1, 76.742, 205.9, , , , 35.3923, 29.0377, 1543.9790, 57.8923, 32.4578, 29.0377, 108.8, 1.8682, 1B
2009/03/10, 01:19:02, 9.572100, -84.973533, , , 212.0, 11.50, 206.3, 28.201, 1007.73, 0.1, 77.079, 206.5, , , , 35.3829, 29.0513, 1543.9982, 57.8932, 32.4569, 29.0513, 119.3, 1.7960, 1B
2009/03/10, 01:20:02, 9.569317, -84.975267, , , 211.0, 11.70, 206.3, 28.217, 1007.66, 0.1, 78.773, 206.5, , , , 35.3738, 29.0701, 1544.0287, 57.9003, 32.4581, 29.0701, 118.1, 0.9788, 1B
2009/03/10, 01:21:01, 9.566517, -84.977000, , , 212.0, 11.80, 206.3, 28.232, 1007.66, 0.1, 79.937, 206.2, , , , 35.3581, 29.0852, 1544.0445, 57.8936, 32.4546, 29.0852, 120.8, 1.0088, 1B
2009/03/10, 01:22:02, 9.563733, -84.978750, , , 213.0, 11.80, 205.6, 28.217, 1007.75, 0.1, 80.542, 205.8, , , , 35.3420, 29.1062, 1544.0724, 57.8928, 32.4567, 29.1062, 123.2, 1.6735, 1B
2009/03/10, 01:23:02, 9.560950, -84.980483, , , 213.0, 11.80, 206.6, 28.178, 1007.58, 0.1, 80.642, 206.8, , , , 35.3149, 29.1317, 1544.0983, 57.8808, 32.4540, 29.1317, 127.0, 1.4745, 1B
2009/03/10, 01:24:02, 9.558100, -84.982267, , , 212.0, 11.70, 206.0, 28.147, 1007.66, 0.0, 80.573, 206.1, , , , 35.2938, 29.1646, 1544.1462, 57.8855, 32.4506, 29.1646, 124.2, 1.1573, 1B
2009/03/10, 01:25:01, 9.555467, -84.983983, , , 214.0, 11.70, 206.7, 28.132, 1007.67, 0.1, 80.519, 206.3, , , , 35.2691, 29.2081, 1544.1990, 57.8892, 32.4545, 29.2081, 124.2, 1.2413, 1B
2009/03/10, 01:26:01, 9.552633, -84.985783, , , 212.0, 11.60, 205.6, 28.101, 1007.59, 0.1, 80.458, 205.6, , , , 35.2335, 29.2549, 1544.2573, 57.8856, 32.4491, 29.2549, 123.7, 1.0473, 1B
2009/03/10, 01:27:01, 9.549983, -84.987433, , , 214.0, 11.50, 206.0, 28.101, 1007.67, 0.1, 80.458, 206.3, , , , 35.2023, 29.3006, 1544.3235, 57.8900, 32.4508, 29.3006, 142.9, 0.9458, 1B
2009/03/10, 01:28:01, 9.547150, -84.989250, , , 213.0, 11.70, 206.2, 28.101, 1007.58, 0.1, 80.826, 206.8, , , , 35.1745, 29.3397, 1544.3798, 57.8926, 32.4484, 29.3397, 138.0, 1.1530, 1B
2009/03/10, 01:29:02, 9.544517, -84.990933, , , 212.0, 11.40, 206.3, 28.070, 1007.52, 0.1, 81.377, 206.4, , , , 35.1539, 29.3627, 1544.4201, 57.8938, 32.4532, 29.3627, 149.7, 1.1874, 1B
2009/03/10, 01:30:01, 9.541783, -84.992683, , , 211.0, 11.70, 205.5, 28.040, 1007.61, 0.1, 81.293, 205.3, , , , 35.1406, 29.3817, 1544.4387, 57.8909, 32.4458, 29.3817, 144.5, 1.4469, 1B
2009/03/10, 01:31:02, 9.538917, -84.994433, , , 212.0, 11.90, 205.7, 28.032, 1007.58, 0.0, 81.247, 205.8, , , , 35.1243, 29.3943, 1544.4559, 57.8844, 32.4506, 29.3943, 114.8, 0.9475, 1B
2009/03/10, 01:32:01, 9.536233, -84.996083, , , 212.0, 11.70, 205.5, 27.993, 1007.68, 0.1, 81.125, 206.1, , , , 35.1340, 29.3909, 1544.4623, 57.8966, 32.4527, 29.3909, 135.7, 1.2048, 1B
2009/03/10, 01:33:02, 9.533483, -84.997800, , , 210.0, 11.50, 206.5, 27.970, 1007.77, 0.0, 80.627, 206.9, , , , 35.1308, 29.3891, 1544.4517, 57.8883, 32.4433, 29.3891, 151.1, 0.8177, 1B
2009/03/10, 01:34:02, 9.530667, -84.999617, , , 213.0, 11.60, 205.9, 27.947, 1007.70, 0.1, 80.428, 205.8, , , , 35.1261, 29.3946, 1544.4585, 57.8874, 32.4442, 29.3946, 101.7, 0.8636, 1B
2009/03/10, 01:35:02, 9.527983, -85.001300, , , 213.0, 11.60, 206.6, 27.939, 1007.71, 0.1, 80.359, 206.8, , , , 35.1147, 29.3997, 1544.4573, 57.8761, 32.4421, 29.3997, 128.2, 0.8422, 1B
2009/03/10, 01:36:01, 9.525200, -85.003033, , , 212.0, 12.00, 206.9, 27.939, 1007.75, 0.1, 80.359, 206.1, , , , 35.1181, 29.3972, 1544.4564, 57.8789, 32.4455, 29.3972, 112.1, 1.0124, 1B
2009/03/10, 01:37:01, 9.522317, -85.004883, , , 212.0, 11.90, 206.6, 27.932, 1007.86, 0.1, 80.091, 206.5, , , , 35.1302, 29.3901, 1544.4547, 57.8892, 32.4435, 29.3901, 114.8, 1.2427, 1B
2009/03/10, 01:38:01, 9.519500, -85.006633, , , 212.0, 12.10, 206.7, 27.924, 1007.79, 0.1, 79.937, 206.6, , , , 35.1292, 29.3819, 1544.4397, 57.8808, 32.4443, 29.3819, 98.9, 0.6828, 1B
2009/03/10, 01:39:01, 9.516783, -85.008333, , , 213.0, 11.50, 206.2, 27.932, 1007.69, 0.1, 80.129, 206.3, , , , 35.1361, 29.3714, 1544.4235, 57.8789, 32.4446, 29.3714, 160.8, 0.4596, 1B
2009/03/10, 01:40:01, 9.513900, -85.010133, , , 213.0, 11.70, 206.3, 27.932, 1007.74, 0.1, 80.267, 206.2, , , , 35.1461, 29.3581, 1544.4090, 57.8810, 32.4397, 29.3581, 199.0, 0.2421, 1B
2009/03/10, 01:41:01, 9.511200, -85.011867, , , 212.0, 11.90, 205.9, 27.916, 1007.80, 0.1, 80.244, 206.0, , , , 35.1687, 29.3360, 1544.3791, 57.8868, 32.4405, 29.3360, 169.4, 0.2775, 1B
2009/03/10, 01:42:01, 9.508400, -85.013617, , , 211.0, 11.90, 206.0, 27.932, 1007.78, 0.1, 80.481, 206.0, , , , 35.1834, 29.3044, 1544.3398, 57.8807, 32.4441, 29.3044, 193.2, 0.2171, 1B
2009/03/10, 01:43:01, 9.505617, -85.015367, , , 212.0, 11.70, 206.7, 27.901, 1007.80, 0.1, 80.351, 206.1, , , , 35.2060, 29.2809, 1544.3045, 57.8839, 32.4436, 29.2809, 209.4, 0.3947, 1B
2009/03/10, 01:44:02, 9.502850, -85.017183, , , 213.0, 11.80, 205.8, 27.932, 1007.74, 0.1, 80.788, 205.4, , , , 35.1963, 29.2865, 1544.3031, 57.8741, 32.4394, 29.2865, 313.6, 0.0753, 1B
2009/03/10, 01:45:02, 9.500083, -85.018917, , , 212.0, 11.60, 205.6, 27.909, 1007.88, 0.1, 80.542, 205.8, , , , 35.1873, 29.3008, 1544.3239, 57.8763, 32.4379, 29.3008, 143.3, 0.1923, 1B
2009/03/10, 01:46:01, 9.497300, -85.020700, , , 212.0, 11.90, 205.8, 27.901, 1007.71, 0.1, 80.435, 205.6, , , , 35.1748, 29.3186, 1544.3439, 57.8748, 32.4393, 29.3186, 117.5, 0.3711, 1B
2009/03/10, 01:47:02, 9.494517, -85.022517, , , 214.0, 11.70, 206.2, 27.886, 1007.74, 0.1, 80.328, 205.9, , , , 35.1745, 29.3241, 1544.3599, 57.8826, 32.4362, 29.3241, 290.8, 0.2838, 1B
2009/03/10, 01:48:01, 9.491750, -85.024300, , , 211.0, 11.80, 205.9, 27.901, 1007.85, 0.1, 80.719, 206.0, , , , 35.1768, 29.3157, 1544.3445, 57.8769, 32.4390, 29.3157, 290.8, 0.6043, 1B
2009/03/10, 01:49:01, 9.488983, -85.026100, , , 211.0, 11.80, 206.0, 27.893, 1007.87, 0.1, 80.627, 206.0, , , , 35.1730, 29.3264, 1544.3632, 57.8828, 32.4418, 29.3264, 296.9, 0.4601, 1B
2009/03/10, 01:50:01, 9.486233, -85.027900, , , 212.0, 11.90, 206.2, 27.901, 1007.81, 0.1, 80.826, 205.7, , , , 35.1537, 29.3579, 1544.3981, 57.8825, 32.4357, 29.3579, 279.5, 0.2446, 1B
2009/03/10, 01:51:02, 9.483500, -85.029717, , , 213.0, 11.80, 206.4, 27.901, 1007.75, 0.0, 81.025, 206.6, , , , 35.1153, 29.3979, 1544.4541, 57.8751, 32.4332, 29.3979, 297.8, 0.8122, 1B
2009/03/10, 01:52:01, 9.480783, -85.031617, , , 218.0, 11.80, 211.9, 27.878, 1007.80, 0.1, 80.650, 212.9, , , , 35.0806, 29.4448, 1544.5169, 57.8744, 32.4317, 29.4448, 319.9, 1.1792, 1B
2009/03/10, 01:53:02, 9.478300, -85.033817, , , 216.0, 11.60, 210.3, 27.886, 1007.85, 0.1, 80.634, 210.2, , , , 35.0529, 29.4911, 1544.5856, 57.8834, 32.4391, 29.4911, 313.6, 0.8615, 1B
2009/03/10, 01:54:02, 9.475583, -85.035817, , , 215.0, 12.30, 209.5, 27.878, 1007.97, 0.1, 80.274, 209.8, , , , 35.0197, 29.5281, 1544.6289, 57.8743, 32.4330, 29.5281, 319.9, 0.7677, 1B
2009/03/10, 01:55:02, 9.472850, -85.037833, , , 216.0, 12.30, 209.1, 27.870, 1007.78, 0.1, 80.067, 208.9, , , , 35.0018, 29.5571, 1544.6712, 57.8789, 32.4353, 29.5571, 315.6, 0.6736, 1B
2009/03/10, 01:56:01, 9.470133, -85.039800, , , 216.0, 12.10, 209.6, 27.878, 1007.97, 0.1, 80.336, 209.5, , , , 34.9933, 29.5757, 1544.6956, 57.8833, 32.4450, 29.5757, 299.0, 0.7238, 1B
2009/03/10, 01:57:02, 9.467450, -85.041783, , , 217.0, 11.90, 210.1, 27.909, 1007.93, 0.1, 80.466, 210.2, , , , 34.9808, 29.5866, 1544.7113, 57.8796, 32.4292, 29.5866, 293.3, 0.6097, 1B
2009/03/10, 01:58:02, 9.464767, -85.043750, , , 214.0, 11.90, 210.0, 27.916, 1007.87, 0.1, 80.550, 210.2, , , , 34.9795, 29.5909, 1544.7190, 57.8822, 32.4395, 29.5909, 292.0, 0.6037, 1B
2009/03/10, 01:59:01, 9.462067, -85.045750, , , 215.0, 11.80, 209.8, 27.901, 1007.75, 0.1, 80.765, 209.6, , , , 34.9753, 29.5929, 1544.7190, 57.8783, 32.4305, 29.5929, 299.5, 0.3958, 1B
2009/03/10, 02:00:02, 9.459417, -85.047783, , , 218.0, 12.00, 210.5, 27.901, 1007.79, 0.1, 80.642, 210.5, , , , 34.9791, 29.5891, 1544.7148, 57.8797, 32.4297, 29.5891, 316.2, 0.4854, 1B
2009/03/10, 02:01:02, 9.456800, -85.049817, , , 216.0, 11.80, 209.5, 27.878, 1007.84, 0.1, 80.159, 209.3, , , , 34.9873, 29.5854, 1544.7156, 57.8879, 32.4408, 29.5854, 304.3, 0.6296, 1B
2009/03/10, 02:02:01, 9.454117, -85.051800, , , 219.0, 11.90, 211.3, 27.893, 1007.81, 0.1, 80.244, 210.9, , , , 34.9829, 29.5804, 1544.7005, 57.8760, 32.4289, 29.5804, 340.8, 0.8108, 1B
2009/03/10, 02:03:02, 9.451483, -85.053833, , , 216.0, 11.70, 209.8, 27.916, 1007.82, 0.1, 80.680, 209.9, , , , 34.9905, 29.5741, 1544.6952, 57.8805, 32.4323, 29.5741, 322.4, 1.0007, 1B
2009/03/10, 02:04:02, 9.448833, -85.055850, , , 215.0, 11.60, 210.3, 27.916, 1007.93, 0.1, 81.109, 210.5, , , , 34.9961, 29.5649, 1544.6817, 57.8789, 32.4285, 29.5649, 324.4, 0.9998, 1B
2009/03/10, 02:05:01, 9.446267, -85.057950, , , 220.0, 11.90, 219.1, 27.939, 1007.89, 0.1, 81.485, 219.7, , , , 34.9993, 29.5567, 1544.6678, 57.8749, 32.4323, 29.5567, 328.2, 1.5870, 1B